Regional Weather Roundup
Issued by NWS Goodland, KS

Home | Current Version | Previous Version | Graphics & Text | Print | Product List | Glossary On
Versions: 1 2 3 4 5 6 7 8 9 10 11 12 13 14 15 16 17 18 19 20 21 22 23 24 25 26 27 28 29 30 31 32 33 34 35 36 37 38 39 40 41 42 43 44 45 46 47 48 49 50
000
ASUS43 KGLD 200559
RWRGLD

GOODLAND FORECAST AREA HOURLY WEATHER ROUNDUP
NATIONAL WEATHER SERVICE GOODLAND KS
1200 AM MDT WED AUG 20 2014

...OFFICIAL OBSERVATIONS...

CITY           SKY/WX    TMP DP  RH WIND       PRES   REMARKS
GOODLAND KS    CLOUDY    74  54  49 S9        29.86S
HILL CITY KS   FAIR      78  62  57 SW9       29.79S
IMPERIAL NEB   CLOUDY    67  62  84 SE7       29.80F
MCCOOK NEB     CLOUDY    73  64  73 N5        29.81S
AKRON CO       CLOUDY    64  60  87 W6        29.89S
BURLINGTON CO  MOCLDY    74  51  44 S10       29.88F
LIMON CO       CLOUDY    64  50  60 NW3       29.94S
$$

...UNOFFICIAL OBSERVATIONS...

CITY           SKY/WX    TMP DP  RH WIND       PRES   REMARKS
COLBY KS       CLEAR     75  64  69 S6        29.85S
LENORA KS        N/A     75  32  20 CALM        N/A
NORTON KS      CLEAR     73  59  60 S7        29.79R
SHARON SPRINGS   N/A     79  59  50 S15G25      N/A
WAKEENEY KS      N/A     78  57  47 MISG        N/A
KIT CARSON CO    N/A     69  58  67 MISG        N/A
YUMA CO          N/A     65  61  88 CALM        N/A
$$



USA.gov is the U.S. government's official web portal to all federal, state and local government web resources and services.